Du Bois, PA

2:49 AM EST on December 09, 2019 (GMT -0500)
Du Bois-Jefferson County

Weather History for KDUJ - October, 2019

Change the Weather History Date:

Wednesday, October 23, 2019

  Actual Average Record
Temperature  
Mean Temperature 46 °F 47 °F  
Max Temperature 54 °F 56 °F 78 °F (1963)
Min Temperature 37 °F 38 °F 23 °F (1969)
Degree Days  
Heating Degree Days 20 18  
Month to date heating degree days 308 341  
Since 1 July heating degree days 411 587  
Cooling Degree Days 0 0  
Month to date cooling degree days 23 0  
Year to date cooling degree days 430 360  
Moisture  
Dew Point 34 °F    
Average Humidity 66    
Maximum Humidity 93    
Minimum Humidity 39    
Precipitation  
Precipitation 0.00 in 0.10 in 1.41 in (2001)
Month to date precipitation 3.00 2.31  
Year to date precipitation 39.40 35.55  
Sea Level Pressure  
Sea Level Pressure 30.02 in    
Wind  
Wind Speed 8 mph ()    
Max Wind Speed 26 mph    
Max Gust Speed 36 mph    
Visibility 10.0 miles    
Events      
T = Trace of Precipitation, MM = Missing Value Source: Averaged Metar Reports

Daily Weather History Graph

Daily Weather History Graph

Search for Another Location

Airport or City:

Astronomy

Oct. 23, 2019 Rise Set
Actual Time 7:35 AM EDT 6:23 PM EDT
Civil Twilight 7:07 AM EDT 6:51 PM EDT
Nautical Twilight 6:35 AM EDT 7:23 PM EDT
Astronomical Twilight 6:03 AM EDT 7:55 PM EDT
Moon 1:48 AM EDT (10/23) 4:16 PM EDT (10/23)
Length of Visible Light 11h 43m
Length of Day
10h 47m
Waning Crescent, 27% of the Moon is Illuminated
Oct 23
Waning Crescent
Oct 27
New
Nov 4
First Quarter
Nov 12
Full
Nov 19
Last Quarter

Hourly Weather History & Observations

Time (EDT) Temp. Windchill Dew Point Humidity Pressure Visibility Wind Dir Wind Speed Gust Speed Precip Events Conditions
12:53 AM 48.0 °F - 44.1 °F 86% 29.86 in 10.0 mi West 4.6 mph - N/A   Overcast
1:53 AM 45.0 °F 41.8 °F 39.9 °F 82% 29.87 in 10.0 mi WSW 5.8 mph - N/A   Clear
2:53 AM 43.0 °F 40.3 °F 37.9 °F 82% 29.87 in 10.0 mi WSW 4.6 mph - N/A   Clear
3:53 AM 41.0 °F 35.8 °F 37.0 °F 86% 29.89 in 10.0 mi WSW 8.1 mph - N/A   Clear
4:53 AM 41.0 °F 38.0 °F 37.0 °F 86% 29.91 in 10.0 mi SW 4.6 mph - N/A   Clear
5:53 AM 41.0 °F 35.8 °F 36.0 °F 82% 29.93 in 10.0 mi WSW 8.1 mph - N/A   Clear
6:53 AM 39.0 °F 33.4 °F 36.0 °F 89% 29.94 in 10.0 mi WSW 8.1 mph - N/A   Clear
7:53 AM 37.9 °F 33.5 °F 36.0 °F 93% 29.96 in 10.0 mi SW 5.8 mph - N/A   Clear
8:53 AM 42.1 °F 36.1 °F 39.0 °F 89% 29.98 in 10.0 mi SW 10.4 mph - N/A   Clear
9:53 AM 46.9 °F - 39.9 °F 77% 29.99 in 10.0 mi WSW 11.5 mph - N/A   Clear
10:53 AM 48.0 °F - 39.0 °F 71% 30.01 in 10.0 mi WSW 15.0 mph 23.0 mph N/A   Clear
11:53 AM 50.0 °F - 34.0 °F 54% 30.01 in 10.0 mi West 18.4 mph 29.9 mph N/A   Partly Cloudy
12:53 PM 52.0 °F - 32.0 °F 47% 30.02 in 10.0 mi WSW 19.6 mph 27.6 mph N/A   Partly Cloudy
1:53 PM 53.1 °F - 30.9 °F 43% 30.03 in 10.0 mi WSW 20.7 mph 26.5 mph N/A   Partly Cloudy
2:53 PM 53.1 °F - 30.0 °F 41% 30.04 in 10.0 mi WSW 20.7 mph 29.9 mph N/A   Partly Cloudy
3:53 PM 53.1 °F - 28.9 °F 40% 30.07 in 10.0 mi WSW 20.7 mph 26.5 mph N/A   Clear
4:53 PM 52.0 °F - 28.0 °F 40% 30.09 in 10.0 mi West 13.8 mph - N/A   Clear
5:53 PM 50.0 °F - 28.0 °F 43% 30.11 in 10.0 mi West 13.8 mph 19.6 mph N/A   Clear
6:53 PM 46.0 °F 43.1 °F 28.0 °F 50% 30.14 in 10.0 mi SW 5.8 mph - N/A   Clear
7:53 PM 45.0 °F 43.5 °F 28.9 °F 53% 30.16 in 10.0 mi SSW 3.5 mph - N/A   Clear
8:53 PM 43.0 °F 39.5 °F 28.9 °F 58% 30.16 in 10.0 mi SW 5.8 mph - N/A   Clear
9:53 PM 42.1 °F 38.4 °F 28.9 °F 60% 30.17 in 10.0 mi SW 5.8 mph - N/A   Clear
10:53 PM 42.1 °F 38.4 °F 28.9 °F 60% 30.18 in 10.0 mi WSW 5.8 mph - N/A   Clear
11:53 PM 41.0 °F 38.0 °F 28.9 °F 62% 30.18 in 10.0 mi SW 4.6 mph - N/A   Clear